Regional Weather Roundup
Issued by NWS

Home | Current Version | Previous Version | Text Only | Print | Product List | Glossary On
Versions: 1 2 3 4 5 6 7 8 9 10 11 12 13 14 15 16 17 18 19 20 21 22 23 24 25 26 27 28 29 30 31 32 33 34 35 36 37 38 39 40 41 42 43 44 45 46 47 48 49 50
000
ASUS43 KDTX 282201
RWRMI
MICHIGAN HOURLY REGIONAL WEATHER ROUNDUP
NATIONAL WEATHER SERVICE DETROIT/PONTIAC MI
600 PM EDT THU AUG 28 2014

NOTE: "FAIR" INDICATES FEW OR NO CLOUDS BELOW 12,000 FEET WITH NO
SIGNIFICANT WEATHER AND/OR OBSTRUCTION TO VISIBILITY.

MIZ047>049-052>055-059>063-066>070-074>076-081>083-282300-
SOUTHEAST LOWER MICHIGAN

CITY           SKY/WX    TMP DP  RH WIND       PRES   REMARKS
ADRIAN         MOSUNNY   74  55  51 SE6       30.11F
ALMA           SUNNY     70  46  41 CALM      30.13S
ANN ARBOR      SUNNY     74  52  46 CALM      30.10F
BAD AXE        PTSUNNY   65  53  63 NE5       30.15S
CARO           SUNNY     68  56  64 N8        30.12F
DETROIT CITY   SUNNY     73  52  47 SE9       30.11F
DETROIT        MOSUNNY   73  50  44 SE6       30.11F
FLINT          SUNNY     74  48  39 CALM      30.12F
GROSSE ILE     SUNNY     72  52  49 E6        30.11S
HILLSDALE      SUNNY     76  55  47 CALM      30.10F
HOWELL         SUNNY     70  46  42 NE3       30.12S

CITY           SKY/WX    TMP DP  RH WIND       PRES   REMARKS
JACKSON        SUNNY     74  54  49 NE5       30.11F
LAMBERTVILLE   SUNNY     72  55  56 E5        30.12S
LANSING        SUNNY     70  48  45 NE5       30.12F
LAPEER         FAIR      69  50  51 CALM      30.13F
MASON          SUNNY     69  51  53 CALM      30.11F
MONROE         SUNNY     72  57  60 SE7       30.10S
MT. CLEMENS    PTSUNNY   70  53  53 E5        30.10F
PONTIAC        PTSUNNY   72  49  44 CALM      30.11F
PORT HOPE        N/A     64  51  62 NE5       30.14S
PORT HURON     SUNNY     66  52  59 N6        30.14S
TRI CITIES     SUNNY     71  52  50 NE5       30.13F
TROY           SUNNY     74  46  36 NE3       30.13F
SAGINAW HB     SUNNY     70  54  56 NE3       30.12F
$$
MIZ043>046-050>051-056>058-064>065-071>073-077>080-282300-
SOUTHWEST LOWER MICHIGAN

CITY           SKY/WX    TMP DP  RH WIND       PRES   REMARKS
BATTLE CREEK   MOSUNNY   75  55  49 NE7       30.10F
BENTON HARBOR  MOSUNNY   78  60  53 E9        30.06F
BIG RAPIDS     MOSUNNY   71  54  55 E5        30.11F
COLDWATER      MOSUNNY   77  57  50 CALM      30.09F
FREMONT        FAIR      73  46  38 CALM      30.10F
HOLLAND        MOSUNNY   75  54  47 E7        30.10F
GRAND RAPIDS   PTSUNNY   72  55  55 VRB7      30.12S
IONIA          FAIR      71  49  46 NE3       30.11S
KALAMAZOO      MOSUNNY   77  57  50 E6        30.09F
LUDINGTON      MOSUNNY   69  59  69 NW8       30.11F
MARSHALL       SUNNY     74  56  52 NE3       30.10S
MOUNT PLEASANT SUNNY     71  47  41 NE3       30.11F
MUSKEGON       PTSUNNY   73  51  46 SE8       30.10F
SOUTH HAVEN    MOSUNNY   77  58  52 E6        30.07F
$$
MIZ016>042-282300-
NORTHERN LOWER MICHIGAN

CITY           SKY/WX    TMP DP  RH WIND       PRES   REMARKS
ALPENA         SUNNY     67  46  47 NE8       30.13F
BEAVER ISLAND  MOSUNNY   65  51  58 SW6       30.13F
BELLAIRE       MOSUNNY   69  50  50 CALM      30.12F
CADILLAC       MOSUNNY   70  51  52 NE6       30.11F
CHARLEVOIX     MOSUNNY   66  49  52 N3        30.16F
FRANKFORT      MOSUNNY   69  51  53 NE3       30.11F
GAYLORD        MOSUNNY   65  45  48 W5        30.14F
GRAYLING       MOSUNNY   69  47  44 NW8       30.14S
HARBOR SPRINGS MOSUNNY   66  49  52 SW3       30.13F
HOUGHTON LAKE  MOSUNNY   70  47  43 W5        30.13F
MANISTEE       MOSUNNY   68  52  56 NW7       30.12S
OSCODA         SUNNY     65  52  62 E8        30.14F
PELLSTON       PTSUNNY   68  49  50 E6        30.13F
TRAVERSE CITY  PTSUNNY   70  51  51 NE9       30.11F
$$
MIZ007>008-015-282300-
EASTERN UPPER MICHIGAN

CITY           SKY/WX    TMP DP  RH WIND       PRES   REMARKS
KINROSS        SUNNY     66  45  45 N6        30.13S
MACKINAC ISLAN SUNNY     64  49  58 SW5       30.13S
NEWBERRY       SUNNY     67  48  50 SW10G20   30.11S
S. S. MARIE    SUNNY     68  43  40 VRB6      30.12S
$$
MIZ004>006-011>014-085-282300-
CENTRAL UPPER MICHIGAN

CITY           SKY/WX    TMP DP  RH WIND       PRES   REMARKS
MANISTIQUE     PTSUNNY   64  54  71 S5        30.12F
ESCANABA       PTSUNNY   64  52  63 SE9       30.11F
MENOMINEE      CLOUDY    66  55  68 S9G16     30.09F
SAWYER-GWINN   MOSUNNY   66  54  63 SE9       30.10S
$$
MIZ001>003-009>011-084-282300-
WESTERN UPPER MICHIGAN

CITY           SKY/WX    TMP DP  RH WIND       PRES   REMARKS
IRON MOUNTAIN  PTSUNNY   71  55  56 S8        30.07F
HOUGHTON       MOSUNNY   65  49  56 E8        30.07F
COPPER HARBOR    N/A     67  47  48 VRB6      30.08F
$$

ABBREVIATIONS USED IN REMARKS
   TC - TEMPERATURE IN CELSIUS
  WCI - WIND CHILL INDEX
   HX - HEAT INDEX
  VSB - VISIBILITY




USA.gov is the U.S. government's official web portal to all federal, state and local government web resources and services.